Back to catalog

METEOR 2-6 DEB

LostPO
NORAD 29199·DEBRIS·🇷🇺 Russia

Launched Sep 9, 1980 from Plesetsk Cosmodrome

Loading…

Next Passes (next 24 hours)

TLE

StaleSource: Space-Track

Epoch: Mar 13, 2026, 11:55 UTC

1 29199U 80073E   26072.49685741  .00044618  00000-0  50644-2 0  9993
2 29199  81.1985 356.3119 0007308 304.5700  55.4822 14.86078202 32299

Track METEOR 2-6 DEB in real time with AllMySat

Download on the App Store